Find Starlink 32664

NORAD ID: 62204 Int'l Des: 2024-229 Owner: SPXS Country: US Constellation: starlink operational
LEOCIRCULAR

現在のビュー

3D地球を読み込み中...

About Starlink 32664

Starlink 32664 (NORAD 62204) is a starlink constellation satellite (v2 mini) launched Dec 4, 2024 by SPXS of US. It operates in LEO, CIRCULAR orbit with a mass of 730.00 kg.

Starlink 32664について

説明を読み込み中...

次回通過

Passes for default location (London). Set your location on the main map for personalized predictions.

高度履歴

Loading altitude history...

軌道要素

1 62204U 24229N 26194.65430213 .00100191 00000-0 87430-3 0 9996
2 62204 42.9875 255.1022 0028884 49.0542 311.2818 15.67374580 90102
Epoch: Jul 13, 2026 • Age: 17 hours

現在のステータス

高度 389.7 km
遠地点 / 近地点 N/A
速度 7.67 km/s
衛星直下点 -40.67°S, 129.06°E
打ち上げ日 Dec 4, 2024
運用期間 1.6 years
タイプ internet

技術仕様

分類 Payload
質量 730.00 kg
乾燥質量 700.00 kg
総質量 730.00 kg
長さ 0.30 m
直径 4.10 m
スパン 29.00 m
形状 Box + pan
製造者 SPXS
バスタイプ Starlink V2M
フェーズステータス In Orbit
所有者/国 SPXS/US

Most Searched